User: anonymous   Login
Location: Valdosta
(30.8330°N, 83.2790°W)
Time: 15:13:33
(UTC-04:00)
Language:

Uribyol 2 - Orbit

View from above orbital plane
View from above orbital plane
View from above satellite
View from above satellite

Ground track
Ground track

The orbit data is extracted from the following two-line orbital elements,

1 22828U 93061F   15182.46488657  .00000024  00000-0  26184-4 0  9997
2 22828 098.6951 131.8850 0008978 224.5177 135.5285 14.30513278103465
Epoch (UTC): 01 July 2015 11:09:26
Eccentricity: 0.0008978
inclination: 98.6951°
perigee height: 783 km
apogee height: 796 km
right ascension of ascending node: 131.8850°
argument of perigee: 224.5177°
revolutions per day: 14.30513278
mean anomaly at epoch: 135.5285°
orbit number at epoch: 10346

The dashed part of the orbit path shows where the satellite is in the earth's shadow,  

DLR